SL-16 DEB, 39857

Orbit data source: Space-Track

SL-16 DEB, 39857 is space debris in LEO originally from a launch on Fri, 25 Dec 1992 UTC launched from the Tyuratam Missile And Space Complex (TTMTR). Debris objects in space refer to the collection of defunct objects orbiting the Earth. Examples of debris include non-operational satellites, rocket bodies, and fragments generated from explosions, collisions, or faulty payload assembly.

Loading next visibility...
Identifier
39857, 1992-093LK
Orbit
LEO
Country
Flag of CISCIS
Related business
Manufacturer
Unknown
Mission
Spacecraft
Bus & Motor
Unknown
Mass
Unknown
Launch date (UTC)
1992-12-25 (33 years ago)
Launch vehicle
Unknown
Launch site
Tyuratam Missile And Space Complex (TTMTR)
Object type
Payload
Rocket body
Debris
Shape & HBR
Unknown shape, 0.1 m
Radar Cross Section
Small (<0.1 m²)

Expand to show TLE details & history
Last TLE update: 6 days ago

TLE from 6 days ago
0 SL-16 DEB
1 39857U 92093LK  25343.91836419  .00002276  00000-0  96590-3 0  9992
2 39857  70.9168 216.1235 0057036 152.2915 208.1272 14.25527769596078
Epoch: 2025-12-09T22:02Z
TLE epoch observation values (Epoch: 2025-12-09T22:02:26.666Z)
Latitude
-0.00003°
Longitude
166.61623°
Altitude
845.322 km
Speed
7.412 km/s
True Right ascension
14h 24m 29s
True Declination
0° 00' 00"
Sunlit
Object was in daylight at epoch
Visualization orbit readout
Latitude
Unknown
Longitude
Unknown
Altitude
Unknown
Speed
Unknown
Apparent Right ascension
Unknown
Apparent Declination
Unknown
Sunlit
N/A
Visualization observer readout
Local Sidereal Time
17:25:43
Azimuth
Unknown
Elevation
Unknown
Doppler factor
Unknown
Orbital elements
Apogee altitude
845.609 km
Perigee altitude
763.674 km
Semi-major axis
7,182.778 km
Eccentricity
0.0057
Inclination
70.9168°
RAAN
216.1235°
Arg. of periapsis
152.2915°
True anomaly
207.82101°
Mean anomaly
208.1272°
Eccentric anomaly
207.97391°
Mean motion
3.56537 °/min
Orbital period
100.97 mins
BSTAR
0.0009659
Loading maneuver chart data...
Computing Atmospheric mass density...
Loading historical data...
Loading historical data...
Loading historical data...
Loading historical data...
Loading historical data...
Loading historical data...
Loading historical data...

Documentation

Showing up to 5 results
|